Weather History for Fort Worth NAS, TX

Change the Weather History Date:

Wednesday, March 19, 2014

  Actual Average Record
Temperature  
Mean Temperature 57 °F -  
Max Temperature 66 °F 66 °F 82 °F (2011)
Min Temperature 48 °F 46 °F 41 °F (1998)
Degree Days  
Heating Degree Days 8    
Growing Degree Days 7 (Base 50)    
Moisture  
Dew Point 29 °F    
Average Humidity 35    
Maximum Humidity 48    
Minimum Humidity 21    
Precipitation  
Precipitation 0.00 in - - ()
Sea Level Pressure  
Sea Level Pressure 30.12 in    
Wind  
Wind Speed 15 mph (NNW)    
Max Wind Speed 23 mph    
Max Gust Speed 31 mph    
Visibility 10 miles    
Events      
Averages and records for this station are not official NWS values.
T = Trace of Precipitation, MM = Missing Value Source: NWS Daily Summary

Daily Weather History Graph

Daily Weather History Graph

Search for Another Location

Airport:

Trip Planner

Search our weather history database for the weather conditions in past years. The results will help you decide how hot, cold, wet, or windy it might be!

Date:

Astronomy

Mar. 19, 2014 Rise Set
Actual Time 7:34 AM CDT 7:40 PM CDT
Civil Twilight 7:10 AM CDT 8:05 PM CDT
Nautical Twilight 6:41 AM CDT 8:33 PM CDT
Astronomical Twilight 6:12 AM CDT 9:02 PM CDT
Moon 10:48 PM CDT (3/19) 9:11 AM CDT (3/19)
Length of Visible Light 12h 55m
Length of Day
12h 05m
Waning Gibbous, 91% of the Moon is Illuminated
Mar 19
Waning Gibbous
Mar 23
Last Quarter
Mar 30
New
Apr 7
First Quarter
Apr 15
Full

Hourly Weather History & Observations

Time (CDT) Temp. Dew Point Humidity Pressure Visibility Wind Dir Wind Speed Gust Speed Precip Events Conditions
12:52 AM 62.1 °F 27.0 °F 26% 29.93 in - NNW 23.0 mph 31.1 mph N/A   Overcast
1:18 AM 60.1 °F 26.1 °F 27% 30.00 in - NNW 19.6 mph 25.3 mph N/A   Overcast
1:50 AM 57.2 °F 26.6 °F 31% 30.02 in - NNW 20.7 mph 26.5 mph N/A   Scattered Clouds
1:52 AM 57.9 °F 27.0 °F 31% 29.98 in - NNW 17.3 mph 26.5 mph N/A   Partly Cloudy
2:52 AM 55.0 °F 28.0 °F 35% 30.01 in - NNW 12.7 mph - N/A   Clear
3:52 AM 52.0 °F 28.0 °F 40% 30.03 in - NNW 13.8 mph - N/A   Clear
4:52 AM 50.0 °F 28.0 °F 43% 30.05 in - NW 16.1 mph - N/A   Clear
5:52 AM 48.9 °F 28.9 °F 46% 30.07 in - NNW 13.8 mph - N/A   Clear
6:52 AM 48.0 °F 28.9 °F 48% 30.12 in 10.0 mi NNW 15.0 mph - N/A   Partly Cloudy
7:52 AM 48.0 °F 28.9 °F 48% 30.16 in 10.0 mi NW 16.1 mph - N/A   Partly Cloudy
8:52 AM 48.0 °F 28.9 °F 48% 30.19 in 10.0 mi NNW 16.1 mph - N/A   Mostly Cloudy
9:52 AM 50.0 °F 28.9 °F 44% 30.19 in 10.0 mi North 17.3 mph 25.3 mph N/A   Mostly Cloudy
10:52 AM 54.0 °F 28.9 °F 38% 30.21 in 10.0 mi NNW 17.3 mph - N/A   Mostly Cloudy
11:52 AM 57.0 °F 28.9 °F 34% 30.21 in 10.0 mi North 11.5 mph 25.3 mph N/A   Mostly Cloudy
12:52 PM 61.0 °F 30.0 °F 31% 30.20 in 10.0 mi North 10.4 mph 29.9 mph N/A   Mostly Cloudy
1:52 PM 62.1 °F 30.0 °F 30% 30.17 in 10.0 mi NNW 11.5 mph 19.6 mph N/A   Mostly Cloudy
2:52 PM 64.0 °F 30.0 °F 28% 30.17 in 10.0 mi North 9.2 mph - N/A   Mostly Cloudy
3:52 PM 66.0 °F 28.9 °F 25% 30.16 in 10.0 mi NNW 12.7 mph - N/A   Mostly Cloudy
4:52 PM 66.0 °F 28.0 °F 24% 30.14 in 10.0 mi North 10.4 mph - N/A   Mostly Cloudy
5:52 PM 66.9 °F 26.1 °F 21% 30.13 in 10.0 mi NNW 8.1 mph 19.6 mph N/A   Mostly Cloudy
6:52 PM 64.9 °F 27.0 °F 24% 30.14 in 10.0 mi North 10.4 mph - N/A   Scattered Clouds
7:52 PM 62.1 °F 27.0 °F 26% 30.15 in 10.0 mi North 4.6 mph - N/A   Partly Cloudy
8:52 PM 59.0 °F 27.0 °F 29% 30.17 in 10.0 mi NNW 4.6 mph - N/A   Partly Cloudy
9:52 PM 57.0 °F 33.1 °F 40% 30.19 in 10.0 mi WNW 4.6 mph - N/A   Partly Cloudy
10:52 PM 52.0 °F 32.0 °F 47% 30.21 in 10.0 mi WNW 6.9 mph - N/A   Clear
11:52 PM 51.1 °F 28.9 °F 43% 30.21 in - NW 5.8 mph - N/A   Clear